LEGION 2

Last updated on Mon Oct 20 2025 00:02:31 GMT+0000 (Coordinated Universal Time)

1 59626U 24081B 25292.27621015 .00011672 00000+0 59103-3 0 9994 2 59626 97.5275 7.4171 0002816 143.4293 216.7133 15.17151674 81020
UTC large
Height (km)
Speed (km/s)
/
Latitude / Longitude
Inclination (degrees)
Orbital Period (minutes)
Azimuth
Elevation
Range (km)
Doppler Factor

Next 0 passes for location: London (51.5072 / 0.1276)

Sorry there are no passes over London.